Wind_Speed
3 2 3 5 7 9 11 12 13 15 16 17 17 18 18 18 18 17 16 16 16 16
6 5 3 4 5 7 9 11 13 14 15 16 17 18 19 19 20 18 16 18 17 18
10 8 7 5 5 6 8 9 11 12 14 15 17 18 19 20 20 18 19 17 20 21
12 10 9 8 8 9 9 11 12 14 15 16 17 18 19 20 20 21 22 22 20 23
13 12 11 10 10 11 12 12 14 14 16 17 18 20 21 23 21 22 25 26 26 27
15 13 13 12 12 13 15 15 15 17 18 19 21 23 23 24 23 24 26 27 28 29
16 14 14 14 14 15 16 17 17 18 20 21 23 24 25 24 26 28 28 29 27 26
14 14 14 14 15 17 18 18 19 22 22 23 25 27 25 25 28 28 28 27 25 28
12 13 14 16 16 18 18 19 20 22 24 27 28 28 24 24 27 28 27 29 29 28
11 14 14 15 17 18 20 22 24 26 27 30 31 31 26 26 28 28 30 30 29 32
10 12 14 16 18 21 23 25 27 30 30 32 34 31 28 28 30 30 31 33 33 32
12 15 17 20 22 23 25 26 28 30 31 33 36 32 27 28 32 33 34 33 32 30
15 17 20 21 22 23 23 25 27 30 31 32 33 33 29 27 29 31 31 32 32 32
18 19 20 21 20 21 22 25 28 31 33 34 33 32 27 26 28 29 31 33 33 31
Wind_Direction
240 292 349 13 19 19 17 17 16 17 15 13 9 6 2 360 355 347 339 340 334 322
246 259 282 322 343 356 357 360 3 2 5 4 1 358 354 351 347 341 337 331 327 321
243 255 269 287 306 319 331 337 343 348 351 353 351 348 344 341 339 335 337 332 320 315
243 253 265 278 293 304 316 321 328 333 336 337 337 336 334 334 335 330 328 331 327 322
247 255 266 278 289 298 305 311 315 318 320 322 324 326 328 327 327 326 326 327 324 319
252 260 271 280 288 294 298 299 301 306 310 312 315 317 320 320 319 320 320 319 317 313
253 262 270 278 288 292 293 297 299 299 301 305 307 309 312 312 313 315 312 309 302 299
255 262 271 284 291 291 293 295 297 298 299 301 303 305 307 309 309 305 299 294 292 291
259 270 285 294 293 293 296 298 297 298 301 303 303 304 298 296 296 293 289 290 292 287
279 289 295 295 297 300 303 304 305 305 306 304 302 304 299 296 291 288 286 285 283 287
305 304 305 305 307 308 309 309 309 308 307 305 303 305 300 296 291 285 281 280 280 280
317 313 311 311 312 312 311 310 309 309 309 308 306 306 301 296 290 286 283 281 279 274
315 312 311 312 312 313 313 312 312 310 310 310 303 305 299 296 290 284 283 283 279 279
312 311 310 312 314 314 315 314 312 311 312 312 312 311 304 298 290 283 282 278 279 278
Height
884 886 885 884 883 882 881 880 878 877 876 876 875 874 872 870 868 868 867 866 864 861
884 884 883 882 881 880 879 878 877 875 874 874 873 872 871 870 869 867 866 864 862 859
881 882 881 880 879 878 877 876 875 873 872 872 872 871 871 870 868 865 863 861 859 856
878 879 879 878 877 876 875 874 872 871 870 870 870 870 869 867 865 862 860 858 855 852
876 876 876 875 875 874 873 872 871 870 869 869 868 867 865 863 861 858 855 852 851 848
874 873 873 873 872 871 870 870 870 868 867 866 864 863 861 859 856 853 851 849 847 845
870 869 870 870 869 869 868 867 866 865 863 862 860 858 856 854 851 847 846 845 843 840
866 866 866 865 865 865 864 863 862 860 858 857 855 853 851 849 845 843 841 838 835 833
862 862 861 860 860 861 860 859 857 855 853 850 849 848 847 845 841 838 835 831 827 826
858 858 857 858 857 857 855 853 851 848 846 843 841 841 839 838 835 831 827 824 821 816
856 855 855 854 853 852 849 847 843 841 839 836 834 833 832 830 826 822 818 815 812 809
855 853 852 850 848 846 843 841 837 834 831 829 825 825 824 822 817 811 806 804 802 800
852 850 848 846 843 841 838 835 832 828 826 823 819 817 815 813 808 802 798 794 791 789
848 846 844 841 839 836 833 830 826 822 819 815 812 807 806 804 800 795 790 784 779 777